Location: Harwich
(41.7160°N, 69.9939°W)
Time: 07:30:42
(UTC+02:00)

AO-27 - Visible Passes

Search period start: 16 September 2024 00:00
Search period end: 26 September 2024 00:00
Orbit: 783 x 796 km, 98.8° (Epoch: 14 September)

Date Brightness Start Highest point End Pass type
(mag) Time Alt. Az. Time Alt. Az. Time Alt. Az.
16 Sep 9.6 01:35:54 10° ENE 01:37:26 11° ENE 01:38:59 10° NE visible
16 Sep 7.6 03:16:16 78° NE 03:16:16 78° NE 03:21:16 10° NNW visible
16 Sep 10.4 04:56:59 12° WNW 04:56:59 12° WNW 04:58:04 10° WNW visible
17 Sep 8.0 02:46:25 44° ENE 02:46:32 44° ENE 02:51:27 10° N visible
17 Sep 9.7 04:27:09 22° WNW 04:27:09 22° WNW 04:30:16 10° NW visible
18 Sep 8.8 02:16:35 24° ENE 02:17:09 25° ENE 02:21:18 10° NNE visible
18 Sep 8.8 03:57:19 39° WNW 03:57:19 39° WNW 04:01:18 10° NNW visible
19 Sep 9.4 01:46:45 13° ENE 01:47:54 14° ENE 01:50:31 10° NNE visible
19 Sep 7.9 03:27:28 64° NNW 03:27:28 64° NNW 03:31:54 10° NNW visible
20 Sep 7.9 02:57:38 52° NE 02:57:38 52° NE 03:02:11 10° N visible
20 Sep 10.1 04:38:22 17° WNW 04:38:22 17° WNW 04:40:29 10° NW visible
21 Sep 8.6 02:27:48 30° ENE 02:27:48 30° ENE 02:32:10 10° N visible
21 Sep 9.4 04:08:32 29° WNW 04:08:32 29° WNW 04:11:46 10° NNW visible
22 Sep 9.2 01:57:57 17° ENE 01:58:23 17° ENE 02:01:39 10° NNE visible
22 Sep 8.5 03:38:42 46° NW 03:38:42 46° NW 03:42:29 10° NNW visible
23 Sep 8.1 03:08:51 51° NNE 03:08:51 51° NNE 03:12:51 10° N visible
23 Sep 10.4 04:49:34 12° WNW 04:49:34 12° WNW 04:50:30 10° WNW visible
24 Sep 8.5 02:39:01 34° NE 02:39:01 34° NE 02:42:57 10° N visible
24 Sep 9.8 04:19:44 22° WNW 04:19:44 22° WNW 04:22:09 10° NW visible
25 Sep 9.1 02:09:10 21° ENE 02:09:10 21° ENE 02:12:39 10° NNE visible
25 Sep 9.1 03:49:53 34° NW 03:49:53 34° NW 03:53:01 10° NNW visible
